Terre Haute, IN

1:01 AM EST on December 06, 2019 (GMT -0500)
Terre Haute International-Hulman

Weather History for KHUF - October, 2019

Change the Weather History Date:

Sunday, October 20, 2019

  Actual Average Record
Temperature  
Mean Temperature 57 °F 53 °F  
Max Temperature 71 °F 64 °F 82 °F (1971)
Min Temperature 43 °F 41 °F 25 °F (1972)
Degree Days  
Heating Degree Days 8 12  
Month to date heating degree days 166 193  
Since 1 July heating degree days 168 271  
Cooling Degree Days 0 0  
Month to date cooling degree days 34 12  
Year to date cooling degree days 1298 990  
Growing Degree Days 8 (Base 50)    
Moisture  
Dew Point 50 °F    
Average Humidity 73    
Maximum Humidity 96    
Minimum Humidity 49    
Precipitation  
Precipitation 0.00 in 0.12 in 1.42 in (2016)
Month to date precipitation 1.92 2.32  
Year to date precipitation 39.85 37.02  
Sea Level Pressure  
Sea Level Pressure 29.87 in    
Wind  
Wind Speed 2 mph (NE)    
Max Wind Speed 8 mph    
Max Gust Speed 11 mph    
Visibility 10 miles    
Events      
T = Trace of Precipitation, MM = Missing Value Source: NWS Daily Summary

Daily Weather History Graph

Daily Weather History Graph

Search for Another Location

Airport or City:

Astronomy

Oct. 20, 2019 Rise Set
Actual Time 8:04 AM EDT 7:03 PM EDT
Civil Twilight 7:36 AM EDT 7:30 PM EDT
Nautical Twilight 7:05 AM EDT 8:01 PM EDT
Astronomical Twilight 6:34 AM EDT 8:32 PM EDT
Moon No Moon Rise 2:30 PM EDT (10/20)
Length of Visible Light 11h 53m
Length of Day
10h 59m
Waning Gibbous, 59% of the Moon is Illuminated
Oct 20
Waning Gibbous
Oct 21
Last Quarter
Oct 27
New
Nov 4
First Quarter
Nov 12
Full

Hourly Weather History & Observations

Time (EDT) Temp. Dew Point Humidity Pressure Visibility Wind Dir Wind Speed Gust Speed Precip Events Conditions
12:53 AM 50.0 °F 46.9 °F 89% 29.79 in 10.0 mi Calm Calm - N/A   Clear
1:53 AM 48.9 °F 46.9 °F 93% 29.78 in 10.0 mi Calm Calm - N/A   Partly Cloudy
2:53 AM 50.0 °F 48.0 °F 93% 29.79 in 10.0 mi Calm Calm - N/A   Mostly Cloudy
3:53 AM 52.0 °F 50.0 °F 93% 29.80 in 10.0 mi Calm Calm - N/A   Overcast
4:53 AM 50.0 °F 48.0 °F 93% 29.80 in 10.0 mi Calm Calm - N/A   Overcast
5:53 AM 51.1 °F 48.9 °F 92% 29.82 in 10.0 mi Calm Calm - N/A   Overcast
6:53 AM 48.0 °F 46.0 °F 93% 29.84 in 10.0 mi Calm Calm - N/A   Scattered Clouds
7:53 AM 46.0 °F 45.0 °F 96% 29.86 in 10.0 mi Calm Calm - N/A   Clear
8:53 AM 50.0 °F 48.0 °F 93% 29.88 in 10.0 mi Calm Calm - N/A   Mostly Cloudy
9:53 AM 57.0 °F 50.0 °F 77% 29.90 in 10.0 mi North 3.5 mph - N/A   Clear
10:53 AM 62.1 °F 51.1 °F 67% 29.91 in 10.0 mi North 3.5 mph - N/A   Clear
11:53 AM 64.9 °F 51.1 °F 61% 29.91 in 10.0 mi East 4.6 mph - N/A   Clear
12:53 PM 66.9 °F 51.1 °F 57% 29.91 in 10.0 mi Calm Calm - N/A   Clear
1:53 PM 69.1 °F 52.0 °F 54% 29.91 in 8.0 mi North - - N/A   Partly Cloudy
1:56 PM 68.0 °F 51.1 °F 55% 29.90 in 8.0 mi Calm Calm - N/A   Partly Cloudy
2:53 PM 69.1 °F 52.0 °F 54% 29.88 in 10.0 mi WSW 3.5 mph - N/A   Clear
3:53 PM 70.0 °F 52.0 °F 53% 29.87 in 10.0 mi Variable 3.5 mph - N/A   Scattered Clouds
4:53 PM 71.1 °F 52.0 °F 51% 29.88 in 10.0 mi Variable 3.5 mph - N/A   Partly Cloudy
5:53 PM 69.1 °F 52.0 °F 54% 29.88 in 10.0 mi SSW 3.5 mph - N/A   Partly Cloudy
6:53 PM 63.0 °F 54.0 °F 72% 29.88 in 10.0 mi Calm Calm - N/A   Clear
7:53 PM 55.9 °F 51.1 °F 84% 29.89 in 10.0 mi NE 4.6 mph - N/A   Clear
8:53 PM 53.1 °F 51.1 °F 93% 29.90 in 10.0 mi Calm Calm - N/A   Clear
9:53 PM 51.1 °F 48.9 °F 92% 29.90 in 10.0 mi Calm Calm - N/A   Scattered Clouds
10:53 PM 54.0 °F 51.1 °F 90% 29.89 in 10.0 mi NE 3.5 mph - N/A   Mostly Cloudy
11:53 PM 52.0 °F 48.9 °F 89% 29.88 in 10.0 mi East 3.5 mph - N/A   Partly Cloudy